Regional Weather Roundup
Issued by NWS Goodland, KS

Home | Current Version | Previous Version | Text Only | Print | Product List | Glossary Off
Versions: 1 2 3 4 5 6 7 8 9 10 11 12 13 14 15 16 17 18 19 20 21 22 23 24 25 26 27 28 29 30 31 32 33 34 35 36 37 38 39 40 41 42 43 44 45 46 47 48 49 50

000
ASUS43 KGLD 250408
RWRGLD

GOODLAND FORECAST AREA HOURLY WEATHER ROUNDUP
NATIONAL WEATHER SERVICE GOODLAND KS
1000 PM MDT TUE MAY 24 2016

...OFFICIAL OBSERVATIONS...

CITY           SKY/WX    TMP DP  RH WIND       PRES   REMARKS
GOODLAND KS    CLEAR     58  54  86 E8        29.76F
HILL CITY KS   CLOUDY    66  53  63 E13       29.78R
IMPERIAL NEB   LGT RAIN  54  52  93 E16       29.78F
MCCOOK NEB     CLOUDY    67  62  84 E10       29.75F
AKRON CO       CLEAR     55  52  89 E10       29.82R
BURLINGTON CO  CLEAR     60  55  83 NE7       29.78S
LIMON CO       CLEAR     57  41  55 SW6       29.84R
$$

...UNOFFICIAL OBSERVATIONS...

CITY           SKY/WX    TMP DP  RH WIND       PRES   REMARKS
COLBY KS       CLEAR     59  59 100 E8        29.78F
GOVE KS          N/A     61  32  33 MISG        N/A
LENORA KS        N/A     64  32  30 MISG        N/A
NORTON KS      CLEAR     64  57  77 E5        29.76S
SHARON SPRINGS   N/A     63  59  86 SE13        N/A
KIT CARSON CO    N/A     64  58  80 MISG        N/A
YUMA CO          N/A     64  58  82 SE15        N/A
$$




USA.gov is the U.S. government's official web portal to all federal, state and local government web resources and services.